Buena Park, CA

7:52 AM PST on February 14, 2016 (GMT -0800)
Fullerton Municipal

Weather History for KFUL - October, 2010

Change the Weather History Date:

Saturday, October 9, 2010

  Actual Average Record
Temperature  
Mean Temperature 73 °F 69 °F  
Max Temperature 90 °F 80 °F 105 °F (2015)
Min Temperature 55 °F 59 °F 52 °F (1998)
Degree Days  
Heating Degree Days 0 0  
Month to date heating degree days 7 0  
Since 1 July heating degree days 7 1  
Cooling Degree Days 8 4  
Month to date cooling degree days 38 47  
Year to date cooling degree days 843 1165  
Growing Degree Days 22 (Base 50)    
Moisture  
Dew Point 53 °F    
Average Humidity 59    
Maximum Humidity 93    
Minimum Humidity 24    
Precipitation  
Precipitation 0.00 in 0.02 in 0.11 in (2013)
Month to date precipitation 0.43 0.11  
Year to date precipitation 12.71 10.09  
Since 1 July precipitation 0.43  
Snow  
Snow 0.00 in - - ()
Month to date snowfall 0.0  
Year to date snowfall 0.0  
Snow Depth 0.00 in    
Sea Level Pressure  
Sea Level Pressure 30.05 in    
Wind  
Wind Speed 1 mph (West)    
Max Wind Speed 9 mph    
Max Gust Speed 14 mph    
Visibility 10 miles    
Events      
T = Trace of Precipitation, MM = Missing Value Source: NWS Daily Summary

Daily Weather History Graph

Daily Weather History Graph

Search for Another Location

Airport or City:

Trip Planner

Search our weather history database for the weather conditions in past years. The results will help you decide how hot, cold, wet, or windy it might be!

Date:

Astronomy

Oct. 09, 2010 Rise Set
Actual Time 6:52 AM PDT 6:25 PM PDT
Civil Twilight 6:27 AM PDT 6:50 PM PDT
Nautical Twilight 5:58 AM PDT 7:19 PM PDT
Astronomical Twilight 5:29 AM PDT 7:48 PM PDT
Moon 9:07 AM PDT (10/9) 7:36 PM PDT (10/9)
Length of Visible Light 12h 23m
Length of Day
11h 33m
Waxing Crescent, 6% of the Moon is Illuminated
Oct 9
Waxing Crescent
Oct 14
First Quarter
Oct 22
Full
Oct 30
Last Quarter
Nov 5
New

Hourly Weather History & Observations

Time (PDT) Temp. Heat Index Dew Point Humidity Pressure Visibility Wind Dir Wind Speed Gust Speed Precip Events Conditions
12:53 AM 60.1 °F - 55.9 °F 86% 30.09 in 10.0 mi East 3.5 mph - N/A   Clear
1:53 AM 60.1 °F - 55.0 °F 83% 30.09 in 10.0 mi Calm Calm - N/A   Clear
2:53 AM 57.9 °F - 55.0 °F 90% 30.08 in 10.0 mi Calm Calm - N/A   Clear
3:53 AM 55.9 °F - 54.0 °F 93% 30.08 in 10.0 mi Calm Calm - N/A   Clear
4:53 AM 55.9 °F - 54.0 °F 93% 30.08 in 10.0 mi Calm Calm - N/A   Clear
5:53 AM 55.9 °F - 53.1 °F 90% 30.08 in 10.0 mi Calm Calm - N/A   Clear
6:53 AM 55.9 °F - 53.1 °F 90% 30.09 in 10.0 mi Calm Calm - N/A   Clear
7:53 AM 59.0 °F - 54.0 °F 83% 30.09 in 9.0 mi Calm Calm - N/A   Clear
8:53 AM 64.9 °F - 52.0 °F 63% 30.10 in 9.0 mi Calm Calm - N/A   Clear
9:53 AM 71.1 °F - 54.0 °F 55% 30.10 in 9.0 mi Calm Calm - N/A   Clear
10:53 AM 75.9 °F - 53.1 °F 45% 30.10 in 9.0 mi Calm Calm - N/A   Clear
11:53 AM 81.0 °F - 52.0 °F 36% 30.08 in 10.0 mi West 5.8 mph - N/A   Clear
12:53 PM 84.0 °F - 48.9 °F 29% 30.05 in 10.0 mi Calm Calm - N/A   Clear
1:53 PM 84.9 °F 83.9 °F 57.0 °F 38% 30.02 in 10.0 mi Variable 5.8 mph - N/A   Clear
2:53 PM 87.1 °F 85.7 °F 55.9 °F 35% 30.00 in 10.0 mi SW 5.8 mph - N/A   Clear
3:53 PM 88.0 °F - 46.9 °F 24% 29.99 in 10.0 mi Variable 5.8 mph - N/A   Clear
4:53 PM 82.9 °F - 50.0 °F 32% 29.98 in 10.0 mi WNW 5.8 mph - N/A   Clear
5:53 PM 79.0 °F - 46.9 °F 32% 29.98 in 10.0 mi West 4.6 mph - N/A   Clear
6:53 PM 75.9 °F - 51.1 °F 42% 29.99 in 10.0 mi Calm Calm - N/A   Clear
7:53 PM 73.0 °F - 54.0 °F 51% 30.01 in 10.0 mi Calm Calm - N/A   Clear
8:53 PM 70.0 °F - 55.0 °F 59% 30.01 in 10.0 mi Calm Calm - N/A   Clear
9:53 PM 68.0 °F - 55.9 °F 65% 30.01 in 10.0 mi Calm Calm - N/A   Clear
10:53 PM 66.0 °F - 55.0 °F 68% 30.02 in 10.0 mi Calm Calm - N/A   Clear
11:53 PM 64.0 °F - 54.0 °F 70% 30.02 in 10.0 mi Calm Calm - N/A   Clear